Regional Weather Roundup
Issued by NWS

Home | Current Version | Previous Version | Graphics & Text | Print | Product List | Glossary On
Versions: 1 2 3 4 5 6 7 8 9 10 11 12 13 14 15 16 17 18 19 20 21 22 23 24 25 26 27 28 29 30 31 32 33 34 35 36 37 38 39 40 41 42 43 44 45 46 47 48 49 50
000
ASUS43 KMKX 290821
RWRWI

WISCONSIN REGIONAL WEATHER ROUNDUP
NATIONAL WEATHER SERVICE MILWAUKEE/SULLIVAN WI
300 AM CDT FRI MAY 29 2015

NOTE: "FAIR" INDICATES FEW OR NO CLOUDS BELOW 12,000 FEET WITH NO
SIGNIFICANT WEATHER AND/OR OBSTRUCTIONS TO VISIBILITY.

WIZ001-002-006>008-014>016-023>028-290900-
NORTHWEST WISCONSIN

CITY           SKY/WX    TMP DP  RH WIND       PRES   REMARKS
SUPERIOR ARPT  CLOUDY    41  41  99 CALM      29.91R
ASHLAND        PTCLDY    46  45  96 CALM      29.90F
HAYWARD        PTCLDY    66  53  63 S9        29.91F
SIREN          PTCLDY    67  54  64 S6        29.90R
CUMBERLAND     MOCLDY    61  55  82 SE13      29.93F
RICE LAKE      MOCLDY    63  57  82 SE7       29.95F
CHETEK         DRIZZLE   62  59  89 E9        29.95F
LADYSMITH      LGT RAIN  63  55  74 S7        29.99F
EAU CLAIRE     LGT RAIN  63  60  90 E5        29.94F
MENOMONIE      LGT RAIN  64  61  93 SE5       29.94F
NEW RICHMOND   DRIZZLE   65  56  74 SE10      29.90F
OSCEOLA        MOCLDY    67  57  72 S10       29.92S
$$

WIZ003>005-009-010-017-018-290900-
NORTH CENTRAL WISCONSIN

CITY           SKY/WX    TMP DP  RH WIND       PRES   REMARKS
MANITOWISH WTR CLOUDY    62  56  81 S7        29.97F
ARBOR VITAE    CLOUDY    63  55  74 S7        29.98F
WOODRUFF       CLOUDY    63  55  74 S7        29.98F
RHINELANDER    CLOUDY    64  53  67 S6        30.01F
EAGLE RIVER    CLOUDY    62  52  71 S3        30.00F
LAND O LAKES   CLOUDY    64  54  70 S7        30.00F
PHILLIPS       PTCLDY    64  54  68 S9        29.97S
TOMAHAWK       CLOUDY    59  54  83 CALM      30.00F
MEDFORD        RAIN      62  56  80 S9        30.01R
MERRILL        CLOUDY    63  56  79 CALM      30.01F
$$

WIZ029-030-035-036-043>047-290900-
CENTRAL WISCONSIN

CITY           SKY/WX    TMP DP  RH WIND       PRES   REMARKS
WAUSAU         CLOUDY    64  55  72 S5        29.99F
MOSINEE        CLOUDY    63  55  77 SE7       30.01F
MARSHFIELD     LGT RAIN  64  56  75 SW3       29.99F
STEVENS POINT  CLOUDY    65  54  67 S5        30.01F
WAUPACA        CLOUDY    65  55  71 CALM      30.01F
WAUTOMA        CLOUDY    62  59  90 CALM      30.01F
WISC RAPIDS    CLOUDY    66  54  65 SE3       30.01F
CAMP DOUGLAS   DRIZZLE   64  64 100 S5        30.00R
$$

WIZ011>013-019>022-031-037>040-048>050-290900-
NORTHEAST WISCONSIN

CITY           SKY/WX    TMP DP  RH WIND       PRES   REMARKS
ANTIGO         CLOUDY    60  55  86 S8        30.03F
SHAWANO        CLOUDY    65  54  66 CALM      30.02F
OCONTO         CLOUDY    65  56  72 S6        30.02F
STURGEON BAY   CLOUDY    61  52  72 S10       30.07F
GREEN BAY      CLOUDY    67  56  67 S10       30.03F
MANITOWOC      CLOUDY    60  55  83 S8        30.06F
APPLETON       CLOUDY    66  52  59 SE13      30.03F
CLINTONVILLE   CLOUDY    64  54  68 S3        30.02F
OSHKOSH        CLOUDY    65  55  70 S7        30.01F
$$

WIZ032>034-041-042-053>061-290900-
SOUTHWEST WISCONSIN

CITY           SKY/WX    TMP DP  RH WIND       PRES   REMARKS
LA CROSSE      LGT RAIN  65  60  84 E7        29.96F
SPARTA         LGT RAIN  60  59  95 CALM      30.00S
VIROQUA        CLOUDY    62  58  86 SE9       30.00F
BOSCOBEL       LGT RAIN  63  60  90 CALM      30.00F
PRAIRIE DU CHI CLOUDY    63  60  88 E3        29.97F
PLATTEVILLE    CLOUDY    64  60  87 E5        30.02F
$$

WIZ056-057-062-063-064-067-068-290900-
SOUTH CENTRAL WISCONSIN

CITY           SKY/WX    TMP DP  RH WIND       PRES   REMARKS
REEDSBURG      LGT RAIN  62  59  89 S6        30.02R
BARABOO/DELLS  DRIZZLE   67  55  64 SW9       30.03R
LONE ROCK      LGT RAIN  65  58  78 CALM      30.02R
MINERAL POINT  LGT RAIN  63  57  82 SE5       30.03F
MADISON        CLOUDY    69  55  60 S7        30.01F
MIDDLETON      CLOUDY    69  53  56 SW6       30.03R
WATERTOWN      CLOUDY   N/A N/A N/A SE5       30.02F
MONROE         LGT RAIN  64  57  77 S7        30.03S
JANESVILLE     CLOUDY    66  54  63 S3        30.02S
$$

WIZ051-052-058>065-066-070>072-290900-
SOUTHEAST WISCONSIN

CITY           SKY/WX    TMP DP  RH WIND       PRES   REMARKS
MILWAUKEE      CLOUDY    62  53  72 SE9       30.04F
WAUKESHA       CLOUDY    64  54  68 SE7       30.05F
MILWAUKEE/TIMM CLOUDY    64  52  63 SE6       30.05F
RACINE         CLOUDY    61  53  75 S7        30.06F
BURLINGTON     CLOUDY    56  54  92 CALM      30.04F
KENOSHA        CLOUDY    64  56  75 SE8       30.04F
FOND DU LAC    CLOUDY    67  56  67 S12       30.02F
SHEBOYGAN      CLOUDY    59  53  80 S3        30.05F
WEST BEND      CLOUDY    64  54  68 SE6       30.04F
JUNEAU         CLOUDY    65  55  72 SE10      30.03F
$$

LSZ147-162-290900-
LAKE SUPERIOR

STATION/POSITION TIME  TEMP    WIND        PRES    WAVE
                       AIR SEA DIR/SP/G            HT/PER
                 (UTC) (F)     (DEG/KT/KT) (MB)    (FT/S)
W MID LAKE BUOY  0750   38 37  260/  2/  2   N/A     1/ 4
DEVILS ISLAND    0800   41      50/  2/  3   N/A
PORT WING        0700   40      90/  1/  2   N/A
SAXON HARBOR     0600   46        CALM       N/A
$$

LMZ867-665-643>646-290900-
LAKE MICHIGAN

STATION/POSITION TIME  TEMP    WIND        PRES    WAVE
                       AIR SEA DIR/SP/G            HT/PER
                 (UTC) (F)     (DEG/KT/KT) (MB)    (FT/S)
CHAMBERS ISLAND  0700   60     150/  3/  5   N/A
N MID LAKE BUOY  0750   45 36  200/  6/  6   N/A     1/ 4
NORTHPORT PIER   0700   59     170/  5/  8   N/A
SISTER BAY       0718   57     160/ 12/ 17   N/A
ALGOMA LAKESHORE 0723          210/  4/  5   N/A
KEWAUNEE LAKESHO 0700   52     180/  3/  7   N/A
SHEBOYGAN LAKESH 0800   56     180/  7/  8   N/A
PORT WASHINGTON  0740   55      CALM  /  1   N/A
ATWATER BUOY     0700   55     150/  4/  4   N/A
MILWAUKEE LAKESH 0700   59     100/  3/  3   N/A
S MID LAKE BUOY  0750   49 38  140/ 10/ 12   N/A
KENOSHA   LAKESH 0800   56     160/  7/  7   N/A
$$

TC  - TEMPERATURE IN CELSIUS
VSB - VISIBILITY IN STATUTE MILES
WCI - WIND CHILL INDEX
HX  - HEAT INDEX




USA.gov is the U.S. government's official web portal to all federal, state and local government web resources and services.